Year,Month,Day,Hour,Minute,Value (Times are PST for temperature in C)
2010,05,07,00,00,8.20
2010,05,07,00,01,8.20
2010,05,07,00,02,8.20
2010,05,07,00,03,8.10
2010,05,07,00,04,8.10
2010,05,07,00,05,8.10
2010,05,07,00,06,8.10
2010,05,07,00,07,8.00
2010,05,07,00,08,8.00
2010,05,07,00,09,8.00
2010,05,07,00,10,8.00
2010,05,07,00,11,8.00
2010,05,07,00,12,8.00
2010,05,07,00,13,8.00
2010,05,07,00,14,8.00
2010,05,07,00,15,8.00
2010,05,07,00,16,8.00
2010,05,07,00,17,8.00
2010,05,07,00,18,8.00
2010,05,07,00,19,8.00
2010,05,07,00,20,8.00
2010,05,07,00,21,8.00
2010,05,07,00,22,8.00
2010,05,07,00,23,8.00
2010,05,07,00,24,8.00
2010,05,07,00,25,8.00
2010,05,07,00,26,7.90
2010,05,07,00,27,7.90
2010,05,07,00,28,7.90
2010,05,07,00,29,7.90
2010,05,07,00,30,7.90
2010,05,07,00,31,7.90
2010,05,07,00,32,7.80
2010,05,07,00,33,7.80
2010,05,07,00,34,7.80
2010,05,07,00,35,7.80
2010,05,07,00,36,7.80
2010,05,07,00,37,7.80
2010,05,07,00,38,7.70
2010,05,07,00,39,7.70
2010,05,07,00,40,7.60
2010,05,07,00,41,7.60
2010,05,07,00,42,7.50
2010,05,07,00,43,7.50
2010,05,07,00,44,7.50
2010,05,07,00,45,7.40
2010,05,07,00,46,7.40
2010,05,07,00,47,7.30
2010,05,07,00,48,7.30
2010,05,07,00,49,7.30
2010,05,07,00,50,7.30
2010,05,07,00,51,7.30
2010,05,07,00,52,7.20
2010,05,07,00,53,7.20
2010,05,07,00,54,7.10
2010,05,07,00,55,7.10
2010,05,07,00,56,7.10
2010,05,07,00,57,7.00
2010,05,07,00,58,7.00
2010,05,07,00,59,7.00
2010,05,07,01,00,6.90
2010,05,07,01,01,6.90
2010,05,07,01,02,6.80
2010,05,07,01,03,6.80
2010,05,07,01,04,6.80
2010,05,07,01,05,6.80
2010,05,07,01,06,6.70
2010,05,07,01,07,6.70
2010,05,07,01,08,6.70
2010,05,07,01,09,6.60
2010,05,07,01,10,6.60
2010,05,07,01,11,6.60
2010,05,07,01,12,6.60
2010,05,07,01,13,6.60
2010,05,07,01,14,6.50
2010,05,07,01,15,6.40
2010,05,07,01,16,6.40
2010,05,07,01,17,6.40
2010,05,07,01,18,6.30
2010,05,07,01,19,6.30
2010,05,07,01,20,6.30
2010,05,07,01,21,6.30
2010,05,07,01,22,6.30
2010,05,07,01,23,6.20
2010,05,07,01,24,6.20
2010,05,07,01,25,6.20
2010,05,07,01,26,6.20
2010,05,07,01,27,6.20
2010,05,07,01,28,6.20
2010,05,07,01,29,6.20
2010,05,07,01,30,6.10
2010,05,07,01,31,6.10
2010,05,07,01,32,6.10
2010,05,07,01,33,6.10
2010,05,07,01,34,6.00
2010,05,07,01,35,6.00
2010,05,07,01,36,6.00
2010,05,07,01,37,6.00
2010,05,07,01,38,6.00
2010,05,07,01,39,5.90
2010,05,07,01,40,5.90
2010,05,07,01,41,5.90
2010,05,07,01,42,5.90
2010,05,07,01,43,5.80
2010,05,07,01,44,5.80
2010,05,07,01,45,5.80
2010,05,07,01,46,5.70
2010,05,07,01,47,5.70
2010,05,07,01,48,5.70
2010,05,07,01,49,5.70
2010,05,07,01,50,5.70
2010,05,07,01,51,5.70
2010,05,07,01,52,5.60
2010,05,07,01,53,5.60
2010,05,07,01,54,5.60
2010,05,07,01,55,5.50
2010,05,07,01,56,5.50
2010,05,07,01,57,5.50
2010,05,07,01,58,5.50
2010,05,07,01,59,5.40
2010,05,07,02,00,5.40
2010,05,07,02,01,5.40
2010,05,07,02,02,5.40
2010,05,07,02,03,5.40
2010,05,07,02,04,5.40
2010,05,07,02,05,5.40
2010,05,07,02,06,5.30
2010,05,07,02,07,5.30
2010,05,07,02,08,5.30
2010,05,07,02,09,5.30
2010,05,07,02,10,5.30
2010,05,07,02,11,5.30
2010,05,07,02,12,5.30
2010,05,07,02,13,5.30
2010,05,07,02,14,5.30
2010,05,07,02,15,5.30
2010,05,07,02,16,5.30
2010,05,07,02,17,5.30
2010,05,07,02,18,5.20
2010,05,07,02,19,5.20
2010,05,07,02,20,5.20
2010,05,07,02,21,5.20
2010,05,07,02,22,5.10
2010,05,07,02,23,5.10
2010,05,07,02,24,5.10
2010,05,07,02,25,5.10
2010,05,07,02,26,5.10
2010,05,07,02,27,5.10
2010,05,07,02,28,5.10
2010,05,07,02,29,5.10
2010,05,07,02,30,5.10
2010,05,07,02,31,5.10
2010,05,07,02,32,5.10
2010,05,07,02,33,5.10
2010,05,07,02,34,5.10
2010,05,07,02,35,5.10
2010,05,07,02,36,5.00
2010,05,07,02,37,4.90
2010,05,07,02,38,4.90
2010,05,07,02,39,4.90
2010,05,07,02,40,4.90
2010,05,07,02,41,4.90
2010,05,07,02,42,4.90
2010,05,07,02,43,4.90
2010,05,07,02,44,4.90
2010,05,07,02,45,4.90
2010,05,07,02,46,4.80
2010,05,07,02,47,4.80
2010,05,07,02,48,4.80
2010,05,07,02,49,4.80
2010,05,07,02,50,4.80
2010,05,07,02,51,4.70
2010,05,07,02,52,4.70
2010,05,07,02,53,4.70
2010,05,07,02,54,4.60
2010,05,07,02,55,4.60
2010,05,07,02,56,4.60
2010,05,07,02,57,4.60
2010,05,07,02,58,4.60
2010,05,07,02,59,4.60
2010,05,07,03,00,4.60
2010,05,07,03,01,4.60
2010,05,07,03,02,4.60
2010,05,07,03,03,4.60
2010,05,07,03,04,4.60
2010,05,07,03,05,4.60
2010,05,07,03,06,4.60
2010,05,07,03,07,4.60
2010,05,07,03,08,4.60
2010,05,07,03,09,4.60
2010,05,07,03,10,4.60
2010,05,07,03,11,4.60
2010,05,07,03,12,4.60
2010,05,07,03,13,4.60
2010,05,07,03,14,4.60
2010,05,07,03,15,4.60
2010,05,07,03,16,4.60
2010,05,07,03,17,4.60
2010,05,07,03,18,4.60
2010,05,07,03,19,4.60
2010,05,07,03,20,4.60
2010,05,07,03,21,4.60
2010,05,07,03,22,4.60
2010,05,07,03,23,4.60
2010,05,07,03,24,4.60
2010,05,07,03,25,4.60
2010,05,07,03,26,4.60
2010,05,07,03,27,4.60
2010,05,07,03,28,4.60
2010,05,07,03,29,4.60
2010,05,07,03,30,4.60
2010,05,07,03,31,4.60
2010,05,07,03,32,4.60
2010,05,07,03,33,4.60
2010,05,07,03,34,4.60
2010,05,07,03,35,4.60
2010,05,07,03,36,4.60
2010,05,07,03,37,4.60
2010,05,07,03,38,4.60
2010,05,07,03,39,4.60
2010,05,07,03,40,4.60
2010,05,07,03,41,4.50
2010,05,07,03,42,4.50
2010,05,07,03,43,4.50
2010,05,07,03,44,4.50
2010,05,07,03,45,4.50
2010,05,07,03,46,4.50
2010,05,07,03,47,4.50
2010,05,07,03,48,4.50
2010,05,07,03,49,4.50
2010,05,07,03,50,4.50
2010,05,07,03,51,4.50
2010,05,07,03,52,4.40
2010,05,07,03,53,4.40
2010,05,07,03,54,4.40
2010,05,07,03,55,4.40
2010,05,07,03,56,4.30
2010,05,07,03,57,4.30
2010,05,07,03,58,4.30
2010,05,07,03,59,4.20
2010,05,07,04,00,4.20
2010,05,07,04,01,4.20
2010,05,07,04,02,4.20
2010,05,07,04,03,4.20
2010,05,07,04,04,4.10
2010,05,07,04,05,4.10
2010,05,07,04,06,4.10
2010,05,07,04,07,4.10
2010,05,07,04,08,4.10
2010,05,07,04,09,4.10
2010,05,07,04,10,4.20
2010,05,07,04,11,4.20
2010,05,07,04,12,4.20
2010,05,07,04,13,4.20
2010,05,07,04,14,4.20
2010,05,07,04,15,4.20
2010,05,07,04,16,4.20
2010,05,07,04,17,4.20
2010,05,07,04,18,4.20
2010,05,07,04,19,4.20
2010,05,07,04,20,4.20
2010,05,07,04,21,4.20
2010,05,07,04,22,4.20
2010,05,07,04,23,4.30
2010,05,07,04,24,4.30
2010,05,07,04,25,4.30
2010,05,07,04,26,4.30
2010,05,07,04,27,4.30
2010,05,07,04,28,4.30
2010,05,07,04,29,4.30
2010,05,07,04,30,4.30
2010,05,07,04,31,4.30
2010,05,07,04,32,4.30
2010,05,07,04,33,4.30
2010,05,07,04,34,4.30
2010,05,07,04,35,4.30
2010,05,07,04,36,4.30
2010,05,07,04,37,4.30
2010,05,07,04,38,4.30
2010,05,07,04,39,4.30
2010,05,07,04,40,4.30
2010,05,07,04,41,4.20
2010,05,07,04,42,4.20
2010,05,07,04,43,4.20
2010,05,07,04,44,4.20
2010,05,07,04,45,4.20
2010,05,07,04,46,4.20
2010,05,07,04,47,4.20
2010,05,07,04,48,4.20
2010,05,07,04,49,4.20
2010,05,07,04,50,4.20
2010,05,07,04,51,4.10
2010,05,07,04,52,4.10
2010,05,07,04,53,4.10
2010,05,07,04,54,4.10
2010,05,07,04,55,4.10
2010,05,07,04,56,4.10
2010,05,07,04,57,4.10
2010,05,07,04,58,4.10
2010,05,07,04,59,4.10
2010,05,07,05,00,4.10
2010,05,07,05,01,4.10
2010,05,07,05,02,4.00
2010,05,07,05,03,4.00
2010,05,07,05,04,4.00
2010,05,07,05,05,4.00
2010,05,07,05,06,4.00
2010,05,07,05,07,4.00
2010,05,07,05,08,4.00
2010,05,07,05,09,4.00
2010,05,07,05,10,3.90
2010,05,07,05,11,3.90
2010,05,07,05,12,3.90
2010,05,07,05,13,3.90
2010,05,07,05,14,3.90
2010,05,07,05,15,3.90
2010,05,07,05,16,4.00
2010,05,07,05,17,4.00
2010,05,07,05,18,4.00
2010,05,07,05,19,4.00
2010,05,07,05,20,4.00
2010,05,07,05,21,4.00
2010,05,07,05,22,4.00
2010,05,07,05,23,4.00
2010,05,07,05,24,4.00
2010,05,07,05,25,4.00
2010,05,07,05,26,4.00
2010,05,07,05,27,4.00
2010,05,07,05,28,3.90
2010,05,07,05,29,3.90
2010,05,07,05,30,3.90
2010,05,07,05,31,3.90
2010,05,07,05,32,3.80
2010,05,07,05,33,3.80
2010,05,07,05,34,3.80
2010,05,07,05,35,3.80
2010,05,07,05,36,3.80
2010,05,07,05,37,3.80
2010,05,07,05,38,3.80
2010,05,07,05,39,3.80
2010,05,07,05,40,3.80
2010,05,07,05,41,3.80
2010,05,07,05,42,3.80
2010,05,07,05,43,3.80
2010,05,07,05,44,3.80
2010,05,07,05,45,3.80
2010,05,07,05,46,3.80
2010,05,07,05,47,3.70
2010,05,07,05,48,3.70
2010,05,07,05,49,3.70
2010,05,07,05,50,3.70
2010,05,07,05,51,3.70
2010,05,07,05,52,3.70
2010,05,07,05,53,3.60
2010,05,07,05,54,3.60
2010,05,07,05,55,3.60
2010,05,07,05,56,3.60
2010,05,07,05,57,3.60
2010,05,07,05,58,3.70
2010,05,07,05,59,3.70
2010,05,07,06,00,3.70
2010,05,07,06,01,3.70
2010,05,07,06,02,3.70
2010,05,07,06,03,3.70
2010,05,07,06,04,3.70
2010,05,07,06,05,3.70
2010,05,07,06,06,3.70
2010,05,07,06,07,3.70
2010,05,07,06,08,3.60
2010,05,07,06,09,3.60
2010,05,07,06,10,3.60
2010,05,07,06,11,3.50
2010,05,07,06,12,3.50
2010,05,07,06,13,3.50
2010,05,07,06,14,3.50
2010,05,07,06,15,3.50
2010,05,07,06,16,3.50
2010,05,07,06,17,3.60
2010,05,07,06,18,3.60
2010,05,07,06,19,3.60
2010,05,07,06,20,3.70
2010,05,07,06,21,3.70
2010,05,07,06,22,3.80
2010,05,07,06,23,3.80
2010,05,07,06,24,3.80
2010,05,07,06,25,3.80
2010,05,07,06,26,3.80
2010,05,07,06,27,3.70
2010,05,07,06,28,3.70
2010,05,07,06,29,3.70
2010,05,07,06,30,3.70
2010,05,07,06,31,3.70
2010,05,07,06,32,3.80
2010,05,07,06,33,3.80
2010,05,07,06,34,3.80
2010,05,07,06,35,3.80
2010,05,07,06,36,3.90
2010,05,07,06,37,3.90
2010,05,07,06,38,3.90
2010,05,07,06,39,4.00
2010,05,07,06,40,4.00
2010,05,07,06,41,4.10
2010,05,07,06,42,4.20
2010,05,07,06,43,4.20
2010,05,07,06,44,4.20
2010,05,07,06,45,4.30
2010,05,07,06,46,4.40
2010,05,07,06,47,4.40
2010,05,07,06,48,4.50
2010,05,07,06,49,4.50
2010,05,07,06,50,4.50
2010,05,07,06,51,4.60
2010,05,07,06,52,4.60
2010,05,07,06,53,4.60
2010,05,07,06,54,4.60
2010,05,07,06,55,4.70
2010,05,07,06,56,4.70
2010,05,07,06,57,4.80
2010,05,07,06,58,4.80
2010,05,07,06,59,4.90
2010,05,07,07,00,4.90
2010,05,07,07,01,4.90
2010,05,07,07,02,5.00
2010,05,07,07,03,5.10
2010,05,07,07,04,5.10
2010,05,07,07,05,5.20
2010,05,07,07,06,5.30
2010,05,07,07,07,5.40
2010,05,07,07,08,5.50
2010,05,07,07,09,5.50
2010,05,07,07,10,5.60
2010,05,07,07,11,5.70
2010,05,07,07,12,5.70
2010,05,07,07,13,5.80
2010,05,07,07,14,5.80
2010,05,07,07,15,5.90
2010,05,07,07,16,6.00
2010,05,07,07,17,6.00
2010,05,07,07,18,6.10
2010,05,07,07,19,6.20
2010,05,07,07,20,6.30
2010,05,07,07,21,6.30
2010,05,07,07,22,6.40
2010,05,07,07,23,6.50
2010,05,07,07,24,6.60
2010,05,07,07,25,6.70
2010,05,07,07,26,6.80
2010,05,07,07,27,6.90
2010,05,07,07,28,7.00
2010,05,07,07,29,7.10
2010,05,07,07,30,7.20
2010,05,07,07,31,7.30
2010,05,07,07,32,7.30
2010,05,07,07,33,7.40
2010,05,07,07,34,7.50
2010,05,07,07,35,7.60
2010,05,07,07,36,7.60
2010,05,07,07,37,7.70
2010,05,07,07,38,7.70
2010,05,07,07,39,7.80
2010,05,07,07,40,7.80
2010,05,07,07,41,7.90
2010,05,07,07,42,8.00
2010,05,07,07,43,8.10
2010,05,07,07,44,8.20
2010,05,07,07,45,8.20
2010,05,07,07,46,8.30
2010,05,07,07,47,8.40
2010,05,07,07,48,8.50
2010,05,07,07,49,8.60
2010,05,07,07,50,8.70
2010,05,07,07,51,8.80
2010,05,07,07,52,8.80
2010,05,07,07,53,8.90
2010,05,07,07,54,9.00
2010,05,07,07,55,9.00
2010,05,07,07,56,9.10
2010,05,07,07,57,9.20
2010,05,07,07,58,9.20
2010,05,07,07,59,9.30
2010,05,07,08,00,9.30
2010,05,07,08,01,9.40
2010,05,07,08,02,9.40
2010,05,07,08,03,9.50
2010,05,07,08,04,9.50
2010,05,07,08,05,9.50
2010,05,07,08,06,9.60
2010,05,07,08,07,9.60
2010,05,07,08,08,9.60
2010,05,07,08,09,9.70
2010,05,07,08,10,9.70
2010,05,07,08,11,9.70
2010,05,07,08,12,9.80
2010,05,07,08,13,9.80
2010,05,07,08,14,9.80
2010,05,07,08,15,9.90
2010,05,07,08,16,9.90
2010,05,07,08,17,9.90
2010,05,07,08,18,9.90
2010,05,07,08,19,9.90
2010,05,07,08,20,9.90
2010,05,07,08,21,9.90
2010,05,07,08,22,9.90
2010,05,07,08,23,9.90
2010,05,07,08,24,9.90
2010,05,07,08,25,10.00
2010,05,07,08,26,10.10
2010,05,07,08,27,10.10
2010,05,07,08,28,10.10
2010,05,07,08,29,10.10
2010,05,07,08,30,10.10
2010,05,07,08,31,10.10
2010,05,07,08,32,10.10
2010,05,07,08,33,10.10
2010,05,07,08,34,10.20
2010,05,07,08,35,10.20
2010,05,07,08,36,10.20
2010,05,07,08,37,10.20
2010,05,07,08,38,10.30
2010,05,07,08,39,10.30
2010,05,07,08,40,10.30
2010,05,07,08,41,10.30
2010,05,07,08,42,10.30
2010,05,07,08,43,10.40
2010,05,07,08,44,10.40
2010,05,07,08,45,10.40
2010,05,07,08,46,10.40
2010,05,07,08,47,10.50
2010,05,07,08,48,10.60
2010,05,07,08,49,10.60
2010,05,07,08,50,10.70
2010,05,07,08,51,10.70
2010,05,07,08,52,10.70
2010,05,07,08,53,10.70
2010,05,07,08,54,10.80
2010,05,07,08,55,10.80
2010,05,07,08,56,10.80
2010,05,07,08,57,10.80
2010,05,07,08,58,10.90
2010,05,07,08,59,10.90
2010,05,07,09,00,10.90
2010,05,07,09,01,10.90
2010,05,07,09,02,11.00
2010,05,07,09,03,11.10
2010,05,07,09,04,11.10
2010,05,07,09,05,11.10
2010,05,07,09,06,11.20
2010,05,07,09,07,11.10
2010,05,07,09,08,11.10
2010,05,07,09,09,11.10
2010,05,07,09,10,11.10
2010,05,07,09,11,11.10
2010,05,07,09,12,11.20
2010,05,07,09,13,11.20
2010,05,07,09,14,11.10
2010,05,07,09,15,11.00
2010,05,07,09,16,10.90
2010,05,07,09,17,11.00
2010,05,07,09,18,11.10
2010,05,07,09,19,11.10
2010,05,07,09,20,11.00
2010,05,07,09,21,11.10
2010,05,07,09,22,11.20
2010,05,07,09,23,11.30
2010,05,07,09,24,11.30
2010,05,07,09,25,11.20
2010,05,07,09,26,11.10
2010,05,07,09,27,11.10
2010,05,07,09,28,11.10
2010,05,07,09,29,11.10
2010,05,07,09,30,11.10
2010,05,07,09,31,11.10
2010,05,07,09,32,11.10
2010,05,07,09,33,11.10
2010,05,07,09,34,11.00
2010,05,07,09,35,10.90
2010,05,07,09,36,10.90
2010,05,07,09,37,10.90
2010,05,07,09,38,10.90
2010,05,07,09,39,10.90
2010,05,07,09,40,10.90
2010,05,07,09,41,11.00
2010,05,07,09,42,11.10
2010,05,07,09,43,11.10
2010,05,07,09,44,11.20
2010,05,07,09,45,11.20
2010,05,07,09,46,11.20
2010,05,07,09,47,11.30
2010,05,07,09,48,11.40
2010,05,07,09,49,11.40
2010,05,07,09,50,11.40
2010,05,07,09,51,11.30
2010,05,07,09,52,11.30
2010,05,07,09,53,11.30
2010,05,07,09,54,11.30
2010,05,07,09,55,11.40
2010,05,07,09,56,11.40
2010,05,07,09,57,11.40
2010,05,07,09,58,11.40
2010,05,07,09,59,11.40
2010,05,07,10,00,11.60
2010,05,07,10,01,11.60
2010,05,07,10,02,11.60
2010,05,07,10,03,11.60
2010,05,07,10,04,11.50
2010,05,07,10,05,11.40
2010,05,07,10,06,11.40
2010,05,07,10,07,11.50
2010,05,07,10,08,11.60
2010,05,07,10,09,11.60
2010,05,07,10,10,11.60
2010,05,07,10,11,11.50
2010,05,07,10,12,11.40
2010,05,07,10,13,11.40
2010,05,07,10,14,11.50
2010,05,07,10,15,11.60
2010,05,07,10,16,11.50
2010,05,07,10,17,11.50
2010,05,07,10,18,11.60
2010,05,07,10,19,11.60
2010,05,07,10,20,11.60
2010,05,07,10,21,11.80
2010,05,07,10,22,11.80
2010,05,07,10,23,11.90
2010,05,07,10,24,11.90
2010,05,07,10,25,11.90
2010,05,07,10,26,11.90
2010,05,07,10,27,12.00
2010,05,07,10,28,12.00
2010,05,07,10,29,12.00
2010,05,07,10,30,11.90
2010,05,07,10,31,11.80
2010,05,07,10,32,11.70
2010,05,07,10,33,11.60
2010,05,07,10,34,11.70
2010,05,07,10,35,11.80
2010,05,07,10,36,11.90
2010,05,07,10,37,12.00
2010,05,07,10,38,12.00
2010,05,07,10,39,12.00
2010,05,07,10,40,11.90
2010,05,07,10,41,12.00
2010,05,07,10,42,12.00
2010,05,07,10,43,12.10
2010,05,07,10,44,12.20
2010,05,07,10,45,12.20
2010,05,07,10,46,12.20
2010,05,07,10,47,12.30
2010,05,07,10,48,12.30
2010,05,07,10,49,12.30
2010,05,07,10,50,12.20
2010,05,07,10,51,12.30
2010,05,07,10,52,12.30
2010,05,07,10,53,12.10
2010,05,07,10,54,12.00
2010,05,07,10,55,12.00
2010,05,07,10,56,11.90
2010,05,07,10,57,11.90
2010,05,07,10,58,12.00
2010,05,07,10,59,12.00
2010,05,07,11,00,11.90
2010,05,07,11,01,11.90
2010,05,07,11,02,12.00
2010,05,07,11,03,12.10
2010,05,07,11,04,12.30
2010,05,07,11,05,12.50
2010,05,07,11,06,12.40
2010,05,07,11,07,12.30
2010,05,07,11,08,12.30
2010,05,07,11,09,12.20
2010,05,07,11,10,12.20
2010,05,07,11,11,12.10
2010,05,07,11,12,12.10
2010,05,07,11,13,12.10
2010,05,07,11,14,12.10
2010,05,07,11,15,12.20
2010,05,07,11,16,12.20
2010,05,07,11,17,12.20
2010,05,07,11,18,12.30
2010,05,07,11,19,12.30
2010,05,07,11,20,12.40
2010,05,07,11,21,12.40
2010,05,07,11,22,12.50
2010,05,07,11,23,12.40
2010,05,07,11,24,12.40
2010,05,07,11,25,12.40
2010,05,07,11,26,12.40
2010,05,07,11,27,12.40
2010,05,07,11,28,12.40
2010,05,07,11,29,12.30
2010,05,07,11,30,12.30
2010,05,07,11,31,12.40
2010,05,07,11,32,12.40
2010,05,07,11,33,12.50
2010,05,07,11,34,12.60
2010,05,07,11,35,12.80
2010,05,07,11,36,12.90
2010,05,07,11,37,13.00
2010,05,07,11,38,13.10
2010,05,07,11,39,13.10
2010,05,07,11,40,13.00
2010,05,07,11,41,13.00
2010,05,07,11,42,13.00
2010,05,07,11,43,13.00
2010,05,07,11,44,13.00
2010,05,07,11,45,12.90
2010,05,07,11,46,12.80
2010,05,07,11,47,12.80
2010,05,07,11,48,12.80
2010,05,07,11,49,12.80
2010,05,07,11,50,12.80
2010,05,07,11,51,13.00
2010,05,07,11,52,13.00
2010,05,07,11,53,13.10
2010,05,07,11,54,13.20
2010,05,07,11,55,13.20
2010,05,07,11,56,13.10
2010,05,07,11,57,13.00
2010,05,07,11,58,13.00
2010,05,07,11,59,13.10
2010,05,07,12,00,13.10
2010,05,07,12,01,13.10
2010,05,07,12,02,13.20
2010,05,07,12,03,13.20
2010,05,07,12,04,13.30
2010,05,07,12,05,13.20
2010,05,07,12,06,13.20
2010,05,07,12,07,13.20
2010,05,07,12,08,13.30
2010,05,07,12,09,13.30
2010,05,07,12,10,13.40
2010,05,07,12,11,13.40
2010,05,07,12,12,13.50
2010,05,07,12,13,13.30
2010,05,07,12,14,13.30
2010,05,07,12,15,13.20
2010,05,07,12,16,13.10
2010,05,07,12,17,13.10
2010,05,07,12,18,13.10
2010,05,07,12,19,13.20
2010,05,07,12,20,13.20
2010,05,07,12,21,13.30
2010,05,07,12,22,13.30
2010,05,07,12,23,13.20
2010,05,07,12,24,13.30
2010,05,07,12,25,13.30
2010,05,07,12,26,13.30
2010,05,07,12,27,13.30
2010,05,07,12,28,13.40
2010,05,07,12,29,13.40
2010,05,07,12,30,13.40
2010,05,07,12,31,13.50
2010,05,07,12,32,13.60
2010,05,07,12,33,13.60
2010,05,07,12,34,13.60
2010,05,07,12,35,13.60
2010,05,07,12,36,13.60
2010,05,07,12,37,13.50
2010,05,07,12,38,13.60
2010,05,07,12,39,13.70
2010,05,07,12,40,13.80
2010,05,07,12,41,13.90
2010,05,07,12,42,14.00
2010,05,07,12,43,13.90
2010,05,07,12,44,13.80
2010,05,07,12,45,13.90
2010,05,07,12,46,13.90
2010,05,07,12,47,14.00
2010,05,07,12,48,14.10
2010,05,07,12,49,14.20
2010,05,07,12,50,14.20
2010,05,07,12,51,14.20
2010,05,07,12,52,14.10
2010,05,07,12,53,14.00
2010,05,07,12,54,13.90
2010,05,07,12,55,13.80
2010,05,07,12,56,13.70
2010,05,07,12,57,13.60
2010,05,07,12,58,13.60
2010,05,07,12,59,13.70
2010,05,07,13,00,13.70
2010,05,07,13,01,13.70
2010,05,07,13,02,13.70
2010,05,07,13,03,13.70
2010,05,07,13,04,13.70
2010,05,07,13,05,13.70
2010,05,07,13,06,13.70
2010,05,07,13,07,13.70
2010,05,07,13,08,13.60
2010,05,07,13,09,13.70
2010,05,07,13,10,13.80
2010,05,07,13,11,13.90
2010,05,07,13,12,13.90
2010,05,07,13,13,13.90
2010,05,07,13,14,13.90
2010,05,07,13,15,13.90
2010,05,07,13,16,13.90
2010,05,07,13,17,13.90
2010,05,07,13,18,14.00
2010,05,07,13,19,14.10
2010,05,07,13,20,14.20
2010,05,07,13,21,14.20
2010,05,07,13,22,14.20
2010,05,07,13,23,14.20
2010,05,07,13,24,14.10
2010,05,07,13,25,14.00
2010,05,07,13,26,13.90
2010,05,07,13,27,13.80
2010,05,07,13,28,13.90
2010,05,07,13,29,14.00
2010,05,07,13,30,14.10
2010,05,07,13,31,14.20
2010,05,07,13,32,14.20
2010,05,07,13,33,14.20
2010,05,07,13,34,14.20
2010,05,07,13,35,14.20
2010,05,07,13,36,14.40
2010,05,07,13,37,14.50
2010,05,07,13,38,14.60
2010,05,07,13,39,14.70
2010,05,07,13,40,14.80
2010,05,07,13,41,14.70
2010,05,07,13,42,14.60
2010,05,07,13,43,14.70
2010,05,07,13,44,14.70
2010,05,07,13,45,14.70
2010,05,07,13,46,14.70
2010,05,07,13,47,14.70
2010,05,07,13,48,14.80
2010,05,07,13,49,14.70
2010,05,07,13,50,14.70
2010,05,07,13,51,14.70
2010,05,07,13,52,14.70
2010,05,07,13,53,14.80
2010,05,07,13,54,15.00
2010,05,07,13,55,15.10
2010,05,07,13,56,15.20
2010,05,07,13,57,15.20
2010,05,07,13,58,15.10
2010,05,07,13,59,15.00
2010,05,07,14,00,15.00
2010,05,07,14,01,14.90
2010,05,07,14,02,14.80
2010,05,07,14,03,14.70
2010,05,07,14,04,14.70
2010,05,07,14,05,14.70
2010,05,07,14,06,14.70
2010,05,07,14,07,14.70
2010,05,07,14,08,14.70
2010,05,07,14,09,14.80
2010,05,07,14,10,14.90
2010,05,07,14,11,14.90
2010,05,07,14,12,14.90
2010,05,07,14,13,14.80
2010,05,07,14,14,14.80
2010,05,07,14,15,14.90
2010,05,07,14,16,14.90
2010,05,07,14,17,14.90
2010,05,07,14,18,15.00
2010,05,07,14,19,15.10
2010,05,07,14,20,15.20
2010,05,07,14,21,15.20
2010,05,07,14,22,15.30
2010,05,07,14,23,15.30
2010,05,07,14,24,15.40
2010,05,07,14,25,15.40
2010,05,07,14,26,15.30
2010,05,07,14,27,15.10
2010,05,07,14,28,15.10
2010,05,07,14,29,15.20
2010,05,07,14,30,15.20
2010,05,07,14,31,15.10
2010,05,07,14,32,15.00
2010,05,07,14,33,15.10
2010,05,07,14,34,15.10
2010,05,07,14,35,15.10
2010,05,07,14,36,15.20
2010,05,07,14,37,15.30
2010,05,07,14,38,15.40
2010,05,07,14,39,15.50
2010,05,07,14,40,15.50
2010,05,07,14,41,15.50
2010,05,07,14,42,15.50
2010,05,07,14,43,15.50
2010,05,07,14,44,15.50
2010,05,07,14,45,15.50
2010,05,07,14,46,15.50
2010,05,07,14,47,15.50
2010,05,07,14,48,15.50
2010,05,07,14,49,15.40
2010,05,07,14,50,15.30
2010,05,07,14,51,15.30
2010,05,07,14,52,15.30
2010,05,07,14,53,15.30
2010,05,07,14,54,15.30
2010,05,07,14,55,15.30
2010,05,07,14,56,15.20
2010,05,07,14,57,15.20
2010,05,07,14,58,15.20
2010,05,07,14,59,15.20
2010,05,07,15,00,15.30
2010,05,07,15,01,15.30
2010,05,07,15,02,15.30
2010,05,07,15,03,15.40
2010,05,07,15,04,15.50
2010,05,07,15,05,15.60
2010,05,07,15,06,15.70
2010,05,07,15,07,15.70
2010,05,07,15,08,15.70
2010,05,07,15,09,15.80
2010,05,07,15,10,15.80
2010,05,07,15,11,15.90
2010,05,07,15,12,15.90
2010,05,07,15,13,15.90
2010,05,07,15,14,16.00
2010,05,07,15,15,16.10
2010,05,07,15,16,16.10
2010,05,07,15,17,16.10
2010,05,07,15,18,16.20
2010,05,07,15,19,16.30
2010,05,07,15,20,16.30
2010,05,07,15,21,16.20
2010,05,07,15,22,16.30
2010,05,07,15,23,16.30
2010,05,07,15,24,16.30
2010,05,07,15,25,16.20
2010,05,07,15,26,16.20
2010,05,07,15,27,16.10
2010,05,07,15,28,16.20
2010,05,07,15,29,16.20
2010,05,07,15,30,16.20
2010,05,07,15,31,16.10
2010,05,07,15,32,16.10
2010,05,07,15,33,16.10
2010,05,07,15,34,16.10
2010,05,07,15,35,16.30
2010,05,07,15,36,16.30
2010,05,07,15,37,16.30
2010,05,07,15,38,16.20
2010,05,07,15,39,16.30
2010,05,07,15,40,16.30
2010,05,07,15,41,16.40
2010,05,07,15,42,16.50
2010,05,07,15,43,16.40
2010,05,07,15,44,16.40
2010,05,07,15,45,16.40
2010,05,07,15,46,16.40
2010,05,07,15,47,16.40
2010,05,07,15,48,16.40
2010,05,07,15,49,16.40
2010,05,07,15,50,16.40
2010,05,07,15,51,16.40
2010,05,07,15,52,16.40
2010,05,07,15,53,16.40
2010,05,07,15,54,16.40
2010,05,07,15,55,16.40
2010,05,07,15,56,16.40
2010,05,07,15,57,16.40
2010,05,07,15,58,16.40
2010,05,07,15,59,16.30
2010,05,07,16,00,16.30
2010,05,07,16,01,16.30
2010,05,07,16,02,16.30
2010,05,07,16,03,16.40
2010,05,07,16,04,16.40
2010,05,07,16,05,16.30
2010,05,07,16,06,16.20
2010,05,07,16,07,16.10
2010,05,07,16,08,16.10
2010,05,07,16,09,16.10
2010,05,07,16,10,15.90
2010,05,07,16,11,15.90
2010,05,07,16,12,16.00
2010,05,07,16,13,16.10
2010,05,07,16,14,16.00
2010,05,07,16,15,15.90
2010,05,07,16,16,15.90
2010,05,07,16,17,15.90
2010,05,07,16,18,15.90
2010,05,07,16,19,15.90
2010,05,07,16,20,16.00
2010,05,07,16,21,16.10
2010,05,07,16,22,16.20
2010,05,07,16,23,16.20
2010,05,07,16,24,16.20
2010,05,07,16,25,16.20
2010,05,07,16,26,16.20
2010,05,07,16,27,16.30
2010,05,07,16,28,16.20
2010,05,07,16,29,16.20
2010,05,07,16,30,16.20
2010,05,07,16,31,16.20
2010,05,07,16,32,16.10
2010,05,07,16,33,16.10
2010,05,07,16,34,16.10
2010,05,07,16,35,16.00
2010,05,07,16,36,16.10
2010,05,07,16,37,16.10
2010,05,07,16,38,16.10
2010,05,07,16,39,16.10
2010,05,07,16,40,16.00
2010,05,07,16,41,16.10
2010,05,07,16,42,16.10
2010,05,07,16,43,16.10
2010,05,07,16,44,16.10
2010,05,07,16,45,16.10
2010,05,07,16,46,16.20
2010,05,07,16,47,16.20
2010,05,07,16,48,16.20
2010,05,07,16,49,16.30
2010,05,07,16,50,16.20
2010,05,07,16,51,16.10
2010,05,07,16,52,16.00
2010,05,07,16,53,15.90
2010,05,07,16,54,15.80
2010,05,07,16,55,15.80
2010,05,07,16,56,15.80
2010,05,07,16,57,15.80
2010,05,07,16,58,15.80
2010,05,07,16,59,15.80
2010,05,07,17,00,15.80
2010,05,07,17,01,15.80
2010,05,07,17,02,15.70
2010,05,07,17,03,15.80
2010,05,07,17,04,15.80
2010,05,07,17,05,15.80
2010,05,07,17,06,15.80
2010,05,07,17,07,15.70
2010,05,07,17,08,15.70
2010,05,07,17,09,15.70
2010,05,07,17,10,15.70
2010,05,07,17,11,15.80
2010,05,07,17,12,15.80
2010,05,07,17,13,15.70
2010,05,07,17,14,15.80
2010,05,07,17,15,15.80
2010,05,07,17,16,15.70
2010,05,07,17,17,15.70
2010,05,07,17,18,15.70
2010,05,07,17,19,15.60
2010,05,07,17,20,15.50
2010,05,07,17,21,15.50
2010,05,07,17,22,15.40
2010,05,07,17,23,15.50
2010,05,07,17,24,15.50
2010,05,07,17,25,15.50
2010,05,07,17,26,15.60
2010,05,07,17,27,15.70
2010,05,07,17,28,15.70
2010,05,07,17,29,15.70
2010,05,07,17,30,15.60
2010,05,07,17,31,15.60
2010,05,07,17,32,15.60
2010,05,07,17,33,15.50
2010,05,07,17,34,15.40
2010,05,07,17,35,15.50
2010,05,07,17,36,15.50
2010,05,07,17,37,15.50
2010,05,07,17,38,15.60
2010,05,07,17,39,15.60
2010,05,07,17,40,15.60
2010,05,07,17,41,15.50